Regional Weather Roundup
Issued by NWS

Home | Current Version | Previous Version | Graphics & Text | Print | Product List | Glossary On
Versions: 1 2 3 4 5 6 7 8 9 10 11 12 13 14 15 16 17 18 19 20 21 22 23 24 25 26 27 28 29 30 31 32 33 34 35 36 37 38 39 40 41 42 43 44 45 46 47 48 49 50
000
ASUS45 KSLC 160310
RWRUT

UTAH REGIONAL WEATHER ROUNDUP
NATIONAL WEATHER SERVICE SALT LAKE CITY UT
900 PM MDT MON SEP 15 2014

UTZ001>011-023>025-160400-

NORTHERN UTAH

CITY           SKY/WX    TMP DP  RH WIND       PRES   REMARKS
HILL AFB       CLEAR     73  39  29 E10       30.11R
LOGAN          CLEAR     68  47  46 NE3       30.09R
OGDEN          CLEAR     71  43  36 S7        30.08R
PROVO AIRPORT  PTCLDY    70  50  49 VRB5      30.10R
SALT LAKE CITY PTCLDY    75  42  30 SE5       30.06R
VERNAL         PTCLDY    67  45  45 NW8       30.16R
WENDOVER       PTCLDY    75  34  22 W7        30.05R
HEBER CITY     CLEAR     61  41  48 SE3       30.18R
WEST JORDAN    CLEAR     73  37  27 SW7       30.10R

$$

UTZ012>022-026-027-160400-

SOUTHERN UTAH

CITY           SKY/WX    TMP DP  RH WIND       PRES   REMARKS
BRYCE CANYON   PTCLDY    54  45  71 SW5       30.34R
CEDAR CITY     CLEAR     73  40  30 SE8       30.17R
MILFORD        CLEAR     70  41  34 SE6       30.11R
MOAB/CYNLANDS  CLEAR     73  39  29 W3        30.08R
PRICE          PTCLDY    70  34  26 N9        30.20R
ST GEORGE      CLEAR     86  41  20 S5        29.95R
KANAB            N/A     75  36  23 E3        30.15R

$$

REGIONAL REPORTS     COLORADO/ARIZONA

CITY           SKY/WX    TMP DP  RH WIND       PRES   REMARKS
CRAIG, CO      CLEAR     58  42  55 CALM      30.25R
GRAND JUNCTION CLEAR     69  42  37 E3        30.13R
RIFLE          CLEAR     63  42  46 E8        30.21R
MONTROSE       CLEAR     68  41  37 S8        30.23R
CORTEZ         CLEAR     61  44  53 NE5       30.22R
PAGE, AZ       CLEAR     85  39  19 S7        30.06R
GRAND CANYON   CLEAR     57  45  64 CALM      30.28R
KINGMAN        PTCLDY    84  53  34 SE17      30.00R
FLAGSTAFF      PTCLDY    60  47  61 CALM      30.31R

$$

REGIONAL REPORTS    NEVADA/IDAHO/WYOMING

CITY           SKY/WX    TMP DP  RH WIND       PRES   REMARKS
LAS VEGAS, NV  PTCLDY    97  42  15 S7        29.83R HX  93
ELY            PTCLDY    65  37  35 S8        30.20R
ELKO           CLEAR     74  27  17 CALM      30.08R
POCATELLO, ID  CLEAR     67  30  25 S8        30.08R
BURLEY         CLEAR     66  49  54 SE3       30.04R
EVANSTON, WY   CLEAR     66  31  27 W9        30.29R
ROCK SPRINGS   CLEAR     63  34  33 W12       30.26R

$$


USA.gov is the U.S. government's official web portal to all federal, state and local government web resources and services.